Simultaneous Nadir Overpasses (SNOs) Predictions

Prediction of SNOs between NOAA-19 and TERRA Satellite Orbit:

Table of predicted SNOs for the next 14.0 days since TLE Epoch: 11/30/2013
Index Date (NOAA-19) Time (NOAA-19) Lat,Lon (NOAA-19) SZA (NOAA-19 ) Date (TERRA) Time (TERRA) Lat,Lon (TERRA) SZA (TERRA ) Distance(km) Time Diff (sec)
1 11/30/2013 10:13:52 -70.47,-153.73 87.92 11/30/2013 10:15:02 -70.34,-152.59 88.03 45.15 70
2 11/30/2013 11:04:40 69.94, 14.38 91.56 11/30/2013 11:04:35 69.92, 14.45 91.54 3.43 5
3 11/30/2013 11:55:27 -68.95,-176.93 89.40 11/30/2013 11:54:20 -68.97,-179.18 89.43 89.67 67
4 12/02/2013 14:58:07 -70.80, 134.70 87.26 12/02/2013 14:59:14 -70.68, 136.85 87.35 79.86 67
5 12/02/2013 15:48:49 69.95, -56.65 91.90 12/02/2013 15:48:53 69.93, -56.60 91.89 2.50 4
6 12/02/2013 16:39:42 -69.28, 111.57 88.74 12/02/2013 16:38:32 -69.32, 110.20 88.74 54.05 70
7 12/04/2013 20:32:57 69.92,-127.62 92.17 12/04/2013 20:33:11 69.94,-127.67 92.19 2.90 14
8 12/04/2013 21:23:56 -69.58, 40.11 88.16 12/04/2013 21:22:44 -69.66, 39.57 88.10 22.40 72
9 12/07/2013 01:17:06 69.95, 161.31 92.47 12/07/2013 01:17:29 69.93, 161.25 92.45 3.06 23
10 12/07/2013 02:08:09 -69.84, -31.30 87.64 12/07/2013 02:06:59 -69.82, -31.28 87.67 2.77 70
11 12/09/2013 06:01:15 70.00, 90.22 92.74 12/09/2013 06:01:46 69.97, 90.23 92.71 2.65 31
12 12/09/2013 06:52:17 -69.86,-102.33 87.40 12/09/2013 06:51:16 -69.86,-102.29 87.40 1.71 61
13 12/11/2013 10:45:23 70.00, 19.20 92.94 12/11/2013 10:46:03 70.01, 19.21 92.94 0.48 40
14 12/11/2013 11:36:25 -69.88,-173.39 87.19 12/11/2013 11:35:33 -69.90,-173.31 87.18 3.09 52
15 12/13/2013 15:29:31 70.02, -51.85 93.11 12/13/2013 15:30:20 70.03, -51.83 93.12 0.97 49
16 12/13/2013 16:20:32 -69.87, 115.62 87.04 12/13/2013 16:19:51 -69.87, 115.57 87.05 1.89 41




NCC Satellite Simultaneous Nadir Overpasses (SNOs) Prediction Service
